Weather History for Mannheim, Germany

Change the Weather History Date:

Wednesday, February 27, 2013

  Actual Average (EDDF) Record (EDDF)
Temperature  
Mean Temperature 38 °F -  
Max Temperature 40 °F 43 °F 55 °F (2003)
Min Temperature 35 °F 31 °F 19 °F (2005)
Degree Days  
Heating Degree Days 28    
Moisture  
Dew Point 31 °F    
Average Humidity 78    
Maximum Humidity 87    
Minimum Humidity 61    
Precipitation  
Precipitation 0.00 in - - ()
Sea Level Pressure  
Sea Level Pressure 30.40 in    
Wind  
Wind Speed 7 mph ()    
Max Wind Speed 14 mph    
Max Gust Speed -    
Visibility 7.7 miles    
Events      
Averages and records for this station are not official NWS values.
T = Trace of Precipitation, MM = Missing Value Source: Averaged Metar Reports

Daily Weather History Graph

Daily Weather History Graph

Search for Another Location

Airport:

Trip Planner

Search our weather history database for the weather conditions in past years. The results will help you decide how hot, cold, wet, or windy it might be!

Date:

Astronomy

Feb. 27, 2013 Rise Set
Actual Time 7:12 AM CET 6:05 PM CET
Civil Twilight 6:40 AM CET 6:37 PM CET
Nautical Twilight 6:03 AM CET 7:14 PM CET
Astronomical Twilight 5:26 AM CET 7:51 PM CET
Moon 8:25 PM CET (2/27) 7:25 AM CET (2/27)
Length of Visible Light 11h 57m
Length of Day
10h 52m
Full, 97% of the Moon is Illuminated
Feb 27
Full
Mar 4
Last Quarter
Mar 11
New
Mar 19
First Quarter
Mar 27
Full

Hourly Weather History & Observations

Time (CET) Temp. Windchill Dew Point Humidity Pressure Visibility Wind Dir Wind Speed Gust Speed Precip Events Conditions
12:00 AM 38 °F - 34 °F 79% 30.39 in 6 mi North 8.9 mph - -   Overcast
1:00 AM 38 °F - 34 °F 78% 30.40 in 7 mi NNW 6.7 mph - -   Overcast
2:00 AM 37 °F - 33 °F 81% 30.40 in 7 mi North 6.7 mph - -   Overcast
3:00 AM 37 °F - 33 °F 79% 30.40 in 6 mi NNW 6.7 mph - -   Overcast
4:00 AM 37 °F - 33 °F 79% 30.40 in 6 mi North 4.5 mph - -   Overcast
5:20 AM 35.6 °F 29.9 °F 32.0 °F 87% 30.39 in 6.2 mi North 6.9 mph - N/A   Overcast
5:50 AM 35.6 °F 29.2 °F 32.0 °F 87% 30.39 in 6.2 mi North 8.1 mph - N/A   Overcast
6:00 AM 36 °F - 33 °F 83% 30.40 in 6 mi NNW 6.7 mph - -   Overcast
6:20 AM 35.6 °F 29.2 °F 32.0 °F 87% 30.36 in 6.2 mi North 8.1 mph - N/A   Overcast
6:50 AM 35.6 °F 29.2 °F 32.0 °F 87% 30.39 in 6.2 mi North 8.1 mph - N/A   Overcast
7:00 AM 36 °F - 33 °F 83% 30.40 in 6 mi NNW 6.7 mph - -   Overcast
7:20 AM 35.6 °F 29.9 °F 32.0 °F 87% 30.39 in 6.2 mi North 6.9 mph - N/A   Overcast
7:50 AM 35.6 °F 29.2 °F 32.0 °F 87% 30.39 in 6.2 mi North 8.1 mph - N/A   Overcast
8:00 AM 36 °F - 33 °F 83% 30.41 in 7 mi NNW 6.7 mph - -   Overcast
8:20 AM 35.6 °F 29.2 °F 32.0 °F 87% 30.39 in 6.2 mi North 8.1 mph - N/A   Overcast
8:50 AM 35.6 °F 28.6 °F 32.0 °F 87% 30.39 in 6.2 mi North 9.2 mph - N/A   Overcast
9:00 AM 36 °F - 33 °F 83% 30.43 in 7 mi North 8.9 mph - -   Overcast
9:20 AM 35.6 °F 29.9 °F 32.0 °F 87% 30.42 in 6.2 mi North 6.9 mph - N/A   Overcast
9:50 AM 35.6 °F 29.9 °F 32.0 °F 87% 30.42 in 6.2 mi North 6.9 mph - N/A   Overcast
10:00 AM 36 °F - 33 °F 83% 30.43 in 8 mi North 8.9 mph - -   Overcast
10:20 AM 35.6 °F 29.9 °F 32.0 °F 87% 30.42 in 6.2 mi North 6.9 mph - N/A   Overcast
10:50 AM 37.4 °F 30.8 °F 32.0 °F 81% 30.42 in 6.2 mi North 9.2 mph - N/A   Overcast
11:20 AM 37.4 °F 31.4 °F 32.0 °F 81% 30.42 in 6.2 mi NNE 8.1 mph - N/A   Overcast
11:50 AM 37.4 °F 30.3 °F 32.0 °F 81% 30.42 in 6.2 mi NNE 10.4 mph - N/A   Overcast
12:00 PM 37 °F - 31 °F 72% 30.44 in 13 mi NNE 8.9 mph - -   Overcast
12:20 PM 37.4 °F 30.3 °F 30.2 °F 75% 30.42 in 6.2 mi NNE 10.4 mph - N/A   Overcast
12:50 PM 37.4 °F 30.8 °F 30.2 °F 75% 30.39 in 6.2 mi NNE 9.2 mph - N/A   Overcast
1:00 PM 38 °F - 31 °F 66% 30.43 in 16 mi NNE 8.9 mph - -   Overcast
1:20 PM 37.4 °F 31.4 °F 30.2 °F 75% 30.39 in 6.2 mi NNE 8.1 mph - N/A   Overcast
1:50 PM 39.2 °F 34.2 °F 30.2 °F 70% 30.39 in 6.2 mi NNE 6.9 mph - N/A   Overcast
2:00 PM 40 °F - 31 °F 61% 30.40 in 22 mi North 6.7 mph - -   Overcast
2:20 PM 39.2 °F 33.0 °F 30.2 °F 70% 30.39 in 6.2 mi NNE 9.2 mph - N/A   Overcast
2:50 PM 39.2 °F 32.5 °F 30.2 °F 70% 30.39 in 6.2 mi NE 10.4 mph - N/A   Overcast
3:00 PM 39 °F - 32 °F 66% 30.40 in 19 mi NE 11.2 mph - -   Overcast
3:20 PM 39.2 °F 32.0 °F 30.2 °F 70% 30.36 in 6.2 mi NE 11.5 mph - N/A   Overcast
3:50 PM 39.2 °F 31.2 °F 30.2 °F 70% 30.36 in 6.2 mi NE 13.8 mph - N/A   Overcast
4:00 PM 38 °F - 30 °F 65% 30.40 in 19 mi NNE 8.9 mph - -   Overcast
4:20 PM 37.4 °F 30.3 °F 30.2 °F 75% 30.36 in 6.2 mi NNE 10.4 mph - N/A   Overcast
4:50 PM 37.4 °F 30.8 °F 30.2 °F 75% 30.36 in 6.2 mi NNE 9.2 mph - N/A   Overcast
5:00 PM 38 °F - 31 °F 66% 30.40 in 17 mi NE 8.9 mph - -   Overcast
5:20 PM 37.4 °F 30.8 °F 30.2 °F 75% 30.39 in 6.2 mi NE 9.2 mph - N/A   Overcast
5:50 PM 37.4 °F 31.4 °F 30.2 °F 75% 30.39 in 6.2 mi NE 8.1 mph - N/A   Overcast
6:20 PM 37.4 °F 31.4 °F 30.2 °F 75% 30.39 in 6.2 mi NE 8.1 mph - N/A   Overcast
6:50 PM 37.4 °F 32.1 °F 30.2 °F 75% 30.39 in 6.2 mi NE 6.9 mph - N/A   Overcast
7:20 PM 37.4 °F 31.4 °F 30.2 °F 75% 30.39 in 6.2 mi NE 8.1 mph - N/A   Overcast
7:50 PM 37.4 °F 32.1 °F 30.2 °F 75% 30.39 in 6.2 mi ENE 6.9 mph - N/A   Overcast
8:20 PM 35.6 °F 29.9 °F 30.2 °F 81% 30.39 in 6.2 mi ENE 6.9 mph - N/A   Overcast
8:50 PM 35.6 °F 28.6 °F 30.2 °F 81% 30.39 in 6.2 mi East 9.2 mph - N/A   Overcast
9:00 PM 36 °F - 30 °F 72% 30.42 in 11 mi NE 6.7 mph - -   Overcast
10:00 PM 36 °F - 29 °F 69% 30.41 in 14 mi North 4.5 mph - -   Overcast
11:00 PM 35 °F - 30 °F 75% 30.41 in 10 mi North 4.5 mph - -   Overcast